• In Hungary
  • List of Countries
  • For 7 days
  • Water Temperature
  • Satellite Maps
  • Weather Map
  • News
  • Weather Widgets
  • user-avatar
    Login

    Hourly Weather Río Gallegos

    Today, 22 November, Wednesday

    Time Temperature Precipitation Wind Pressure Humidity
    00:00 +6°C° 0 mm 10 mps 751 mmHg 78%
    01:00 +6°C° 0 mm 9 mps 751 mmHg 81%
    02:00 +6°C° 0 mm 9 mps 751 mmHg 81%
    03:00 +6°C° 0 mm 9 mps 751 mmHg 82%
    04:00 +6°C° 0 mm 9 mps 751 mmHg 82%
    05:00 +7°C° 0 mm 10 mps 751 mmHg 78%
    06:00 +8°C° 0 mm 10 mps 750 mmHg 74%
    07:00 +9°C° 0 mm 11 mps 750 mmHg 70%
    08:00 +10°C° 0 mm 13 mps 750 mmHg 64%
    09:00 +12°C° 0 mm 14 mps 750 mmHg 58%
    10:00 +13°C° 0 mm 16 mps 750 mmHg 52%
    11:00 +11°C° 0 mm 16 mps 749 mmHg 52%
    12:00 +11°C° 0 mm 16 mps 749 mmHg 51%
    13:00 +11°C° 0 mm 15 mps 748 mmHg 50%
    14:00 +10°C° 0.1 mm 15 mps 748 mmHg 53%
    15:00 +10°C° 0.1 mm 15 mps 748 mmHg 56%
    16:00 +9°C° 0.1 mm 15 mps 748 mmHg 59%
    17:00 +6°C° 0.1 mm 15 mps 749 mmHg 58%
    18:00 +5°C° 0.1 mm 16 mps 750 mmHg 56%
    19:00 +2°C° 0.1 mm 16 mps 752 mmHg 55%
    20:00 +2°C° 0 mm 15 mps 753 mmHg 56%
    21:00 +1°C° 0 mm 14 mps 754 mmHg 56%
    22:00 0°C° 0 mm 13 mps 755 mmHg 57%
    23:00 0°C° 0 mm 13 mps 756 mmHg 58%

    Tomorrow, 23 November, Thursday

    Time Temperature Precipitation Wind Pressure Humidity
    00:00 0°C° 0 mm 12 mps 756 mmHg 59%
    01:00 -1°C° 0 mm 12 mps 757 mmHg 60%
    02:00 -1°C° 0 mm 12 mps 757 mmHg 61%
    03:00 -1°C° 0 mm 11 mps 757 mmHg 62%
    04:00 -1°C° 0 mm 11 mps 757 mmHg 63%
    05:00 +1°C° 0 mm 11 mps 757 mmHg 59%
    06:00 +2°C° 0 mm 12 mps 757 mmHg 55%
    07:00 +4°C° 0 mm 13 mps 757 mmHg 50%
    08:00 +4°C° 0.1 mm 13 mps 756 mmHg 52%
    09:00 +5°C° 0.1 mm 13 mps 755 mmHg 53%
    10:00 +5°C° 0.1 mm 13 mps 755 mmHg 55%
    11:00 +6°C° 0.2 mm 14 mps 754 mmHg 55%
    12:00 +6°C° 0.2 mm 14 mps 753 mmHg 56%
    13:00 +6°C° 0.2 mm 15 mps 753 mmHg 56%
    14:00 +8°C° 0.1 mm 15 mps 752 mmHg 56%
    15:00 +8°C° 0.1 mm 15 mps 751 mmHg 55%
    16:00 +8°C° 0.1 mm 15 mps 751 mmHg 54%
    17:00 +8°C° 0 mm 15 mps 750 mmHg 56%
    18:00 +8°C° 0 mm 15 mps 750 mmHg 58%
    19:00 +8°C° 0 mm 15 mps 750 mmHg 60%
    20:00 +6°C° 0 mm 14 mps 750 mmHg 62%
    21:00 +7°C° 0 mm 13 mps 750 mmHg 64%
    22:00 +5°C° 0 mm 13 mps 750 mmHg 66%
    23:00 +5°C° 0 mm 12 mps 749 mmHg 66%

    Day after tomorrow, 24 November, Friday

    Time Temperature Precipitation Wind Pressure Humidity
    00:00 +7°C° 0 mm 12 mps 749 mmHg 66%
    01:00 +7°C° 0 mm 12 mps 748 mmHg 66%
    02:00 +7°C° 0 mm 12 mps 748 mmHg 67%
    03:00 +7°C° 0 mm 11 mps 748 mmHg 67%
    04:00 +7°C° 0 mm 11 mps 748 mmHg 68%
    05:00 +8°C° 0 mm 12 mps 747 mmHg 65%
    06:00 +9°C° 0 mm 13 mps 747 mmHg 62%
    07:00 +9°C° 0 mm 14 mps 747 mmHg 60%
    08:00 +10°C° 0 mm 14 mps 746 mmHg 57%
    09:00 +11°C° 0 mm 15 mps 746 mmHg 54%
    10:00 +13°C° 0 mm 15 mps 745 mmHg 51%
    11:00 +13°C° 0 mm 15 mps 745 mmHg 52%
    12:00 +13°C° 0 mm 16 mps 745 mmHg 54%
    13:00 +13°C° 0 mm 16 mps 744 mmHg 55%
    14:00 +13°C° 0 mm 16 mps 744 mmHg 54%
    15:00 +14°C° 0 mm 16 mps 743 mmHg 52%
    16:00 +14°C° 0 mm 16 mps 743 mmHg 50%
    17:00 +13°C° 0.2 mm 15 mps 743 mmHg 53%
    18:00 +13°C° 0.2 mm 14 mps 742 mmHg 56%
    19:00 +12°C° 0.2 mm 13 mps 742 mmHg 60%
    20:00 +10°C° 0 mm 13 mps 742 mmHg 62%
    21:00 +10°C° 0 mm 14 mps 742 mmHg 65%
    22:00 +9°C° 0 mm 14 mps 742 mmHg 67%
    23:00 +9°C° 0 mm 14 mps 743 mmHg 68%

    25 November, Saturday

    Time Temperature Precipitation Wind Pressure Humidity
    00:00 +9°C° 0 mm 14 mps 743 mmHg 69%
    01:00 +9°C° 0 mm 14 mps 743 mmHg 70%
    02:00 +9°C° 0 mm 14 mps 743 mmHg 70%
    03:00 +8°C° 0 mm 13 mps 744 mmHg 71%
    04:00 +8°C° 0 mm 12 mps 744 mmHg 71%
    05:00 +9°C° 0 mm 14 mps 744 mmHg 67%
    06:00 +10°C° 0 mm 15 mps 744 mmHg 62%
    07:00 +11°C° 0 mm 16 mps 744 mmHg 58%
    08:00 +13°C° 0 mm 16 mps 744 mmHg 54%
    09:00 +14°C° 0 mm 16 mps 744 mmHg 51%
    10:00 +15°C° 0 mm 16 mps 744 mmHg 47%
    11:00 +17°C° 0.1 mm 15 mps 743 mmHg 48%
    12:00 +17°C° 0.1 mm 14 mps 742 mmHg 49%
    13:00 +17°C° 0.1 mm 13 mps 742 mmHg 49%
    14:00 +17°C° 0 mm 14 mps 741 mmHg 49%
    15:00 +17°C° 0 mm 14 mps 741 mmHg 49%
    16:00 +17°C° 0 mm 15 mps 741 mmHg 49%
    17:00 +15°C° 0 mm 13 mps 740 mmHg 50%
    18:00 +16°C° 0 mm 11 mps 740 mmHg 51%
    19:00 +15°C° 0 mm 9 mps 739 mmHg 53%
    20:00 +13°C° 0 mm 10 mps 739 mmHg 52%
    21:00 +13°C° 0 mm 12 mps 738 mmHg 52%
    22:00 +12°C° 0 mm 13 mps 738 mmHg 51%
    23:00 +10°C° 0 mm 14 mps 738 mmHg 53%

    26 November, Sunday

    Time Temperature Precipitation Wind Pressure Humidity
    00:00 +7°C° 0 mm 16 mps 738 mmHg 54%
    01:00 +6°C° 0 mm 17 mps 738 mmHg 55%
    02:00 +5°C° 0 mm 17 mps 738 mmHg 55%
    03:00 +3°C° 0 mm 17 mps 738 mmHg 54%
    04:00 +2°C° 0 mm 17 mps 738 mmHg 54%
    05:00 +3°C° 0 mm 18 mps 738 mmHg 50%
    06:00 +5°C° 0 mm 18 mps 738 mmHg 47%
    07:00 +5°C° 0 mm 19 mps 738 mmHg 44%
    08:00 +6°C° 0 mm 19 mps 738 mmHg 43%
    09:00 +6°C° 0 mm 19 mps 738 mmHg 42%
    10:00 +6°C° 0 mm 19 mps 738 mmHg 42%
    11:00 +7°C° 0 mm 20 mps 739 mmHg 44%
    12:00 +7°C° 0 mm 20 mps 740 mmHg 46%
    13:00 +7°C° 0 mm 20 mps 741 mmHg 48%
    14:00 +7°C° 0 mm 19 mps 743 mmHg 47%
    15:00 +6°C° 0 mm 19 mps 744 mmHg 46%
    16:00 +6°C° 0 mm 19 mps 746 mmHg 45%
    17:00 +5°C° 0 mm 18 mps 748 mmHg 46%
    18:00 +5°C° 0 mm 17 mps 750 mmHg 47%
    19:00 +4°C° 0 mm 16 mps 752 mmHg 49%
    20:00 +2°C° 0 mm 16 mps 753 mmHg 51%
    21:00 +2°C° 0 mm 15 mps 755 mmHg 53%
    22:00 +1°C° 0 mm 14 mps 756 mmHg 55%
    23:00 +1°C° 0 mm 13 mps 757 mmHg 57%

    27 November, Monday

    Time Temperature Precipitation Wind Pressure Humidity
    00:00 0°C° 0 mm 12 mps 758 mmHg 59%
    01:00 0°C° 0 mm 12 mps 758 mmHg 62%
    02:00 +1°C° 0 mm 10 mps 759 mmHg 63%
    03:00 +1°C° 0 mm 9 mps 759 mmHg 64%
    04:00 +1°C° 0 mm 8 mps 760 mmHg 66%
    05:00 +2°C° 0 mm 9 mps 760 mmHg 62%
    06:00 +3°C° 0 mm 9 mps 760 mmHg 58%
    07:00 +6°C° 0 mm 10 mps 760 mmHg 54%
    08:00 +7°C° 0 mm 9 mps 759 mmHg 50%
    09:00 +8°C° 0 mm 9 mps 759 mmHg 47%
    10:00 +10°C° 0 mm 8 mps 759 mmHg 44%
    11:00 +10°C° 0 mm 8 mps 758 mmHg 44%
    12:00 +10°C° 0 mm 8 mps 757 mmHg 43%
    13:00 +11°C° 0 mm 8 mps 756 mmHg 43%
    14:00 +10°C° 0.4 mm 8 mps 755 mmHg 46%
    15:00 +10°C° 0.4 mm 7 mps 755 mmHg 49%
    16:00 +10°C° 0.4 mm 7 mps 754 mmHg 52%
    17:00 +9°C° 0.3 mm 6 mps 754 mmHg 58%
    18:00 +9°C° 0.3 mm 5 mps 753 mmHg 64%
    19:00 +8°C° 0.3 mm 4 mps 753 mmHg 70%
    20:00 +8°C° 0.1 mm 4 mps 753 mmHg 70%
    21:00 +8°C° 0.1 mm 5 mps 753 mmHg 71%
    22:00 +8°C° 0.1 mm 6 mps 753 mmHg 71%
    23:00 +8°C° 0 mm 6 mps 753 mmHg 71%
    Show more